Regional Weather Roundup
Issued by NWS

Home | Current Version | Previous Version | Graphics & Text | Print | Product List | Glossary On
Versions: 1 2 3 4 5 6 7 8 9 10 11 12 13 14 15 16 17 18 19 20 21 22 23 24 25 26 27 28 29 30 31 32 33 34 35 36 37 38 39 40 41 42 43 44 45 46 47 48 49 50
000
ASUS43 KLOT 031908
RWRIL

ILLINOIS REGIONAL WEATHER ROUNDUP
NATIONAL WEATHER SERVICE CHICAGO/ROMEOVILLE IL
200 PM CDT TUE MAY 03 2016

NOTE: "FAIR" INDICATES FEW OR NO CLOUDS BELOW 12,000 FEET WITH NO
SIGNIFICANT WEATHER AND/OR OBSTRUCTIONS TO VISIBILITY.

* THESE STATIONS ARE NOT UNDER NWS QUALITY CONTROL. THEY ALSO MAY NOT
  REPORT WEATHER SUCH AS PRECIPITATION OR FOG.

ILZ001-002-007-009-015-016-024-032000-
NORTHWEST ILLINOIS

CITY           SKY/WX    TMP DP  RH WIND       PRES   REMARKS
MOLINE         PTSUNNY   68  38  33 W15G23    29.91F
STERLING*      PTSUNNY   66  43  42 W15       29.90F
SAVANNA*       MOSUNNY   67  39  35 W13       29.89F
$$

ILZ003-004-008-010-011-017-018-032000-
NORTH CENTRAL ILLINOIS

CITY           SKY/WX    TMP DP  RH WIND       PRES   REMARKS
ROCKFORD       PTSUNNY   66  39  37 W15G22    29.89F
FREEPORT*      PTSUNNY   65  38  37 W15G21    29.90F
ROCHELLE*      MOSUNNY   65  40  39 W13G21    29.89F
DE KALB*       CLOUDY    62  41  44 W13       29.89F
$$

ILZ005-006-012>014-019>023-032000-
NORTHEAST ILLINOIS

CITY           SKY/WX    TMP DP  RH WIND       PRES   REMARKS
CHICAGO-OHARE  PTSUNNY   64  38  38 W10       29.86F
CHICAGO-MIDWAY PTSUNNY   66  37  34 W10       29.87F
AURORA         CLOUDY    64  40  41 W18G25    29.89F
LANSING*       PTSUNNY   64  36  36 W8        29.88F
JOLIET*        PTSUNNY   66  40  39 NW6       29.89F
WAUKEGAN       CLOUDY    65  38  36 W9        29.84F
DUPAGE AIRPORT CLOUDY    63  37  38 W9        29.87F
KANKAKEE*      PTSUNNY   64  38  37 NW7       29.90F
WHEELING       CLOUDY    66  37  34 VRB7      29.87F
MORRIS*        PTSUNNY   66  42  41 NW10G18   29.89F
ROMEOVILLE*    CLOUDY    64  38  37 NW12      29.89F
NORTHERLY ISL    N/A     54  42  64 S7          N/A
NORTHERLY ISL    N/A     54  42  64 S7          N/A
$$

LMZ740>746-032000-
SOUTHERN LAKE MICHIGAN

STATION/POSITION SKY/WX   TEMP    WIND        PRES    VSBY  WAVE
                          AIR SEA DIR/SP/G                  HT/PER
                          (F)     (DEG/KT/KT) (MB)    (MI)  (FT/S)
SOUTHERN BUOY              45 42  170/ 10/ 12 1010.9F         1
HARRISON CRIB              58     140/ 14/ 14   N/A
BURNHAM HARBOR             53     160/  6/ 11   N/A
CALUMET HARBOR             58      80/  9/ 10 1011.9F
BURNS HARBOR               61      CALM  /  2 1013.5F
MICHIGAN CITY              53     220/  2/  2   N/A
ST. JOSEPH                 49 49                N/A           1
$$

ILZ025>027-034>036-040-047-049-050-058-095>099-032000-
WEST-CENTRAL ILLINOIS

CITY           SKY/WX    TMP DP  RH WIND       PRES   REMARKS
QUINCY         MOSUNNY   65  40  39 W9        29.98F
GALESBURG*     PTSUNNY   66  40  39 W15       29.95F
MACOMB*        MOSUNNY   66  40  38 NW12      29.99F
JACKSONVILLE*  PTSUNNY   64  42  44 W8        29.97F
PITTSFIELD*    CLOUDY    63  40  43 W7        30.00F
$$

ILZ028>032-037-038-041>044-048-051>054-059>061-032000-
CENTRAL ILLINOIS

CITY           SKY/WX    TMP DP  RH WIND       PRES   REMARKS
PONTIAC        CLOUDY    66  43  44 NW6       29.92F
BLOOMINGTON    PTSUNNY   65  42  43 NW9       29.94F
DECATUR        CLOUDY    62  41  46 NW9       29.96F
PEORIA         CLOUDY    63  37  38 NW8       29.94F
LACON*         PTSUNNY   66  39  37 NW12G17   29.92F
LINCOLN*       CLOUDY    65  42  43 NW6       29.95F
SPRINGFIELD    CLOUDY    65  40  39 CALM      29.97F
TAYLORVILLE    CLOUDY    62  42  48 SW7       29.97F
$$

ILZ033-039-045-046-055>057-062-063-032000-
EAST-CENTRAL ILLINOIS

CITY           SKY/WX    TMP DP  RH WIND       PRES   REMARKS
CHAMPAIGN      PTSUNNY   65  42  43 N8        29.93F
RANTOUL*       PTSUNNY   65  42  43 N12       29.92F
MATTOON        PTSUNNY   63  39  41 NW9       29.95F
PARIS*         PTSUNNY   62  42  47 NW7       29.94F
$$

ILZ079-100>102-032000-
SOUTHWEST ILLINOIS

CITY           SKY/WX    TMP DP  RH WIND       PRES   REMARKS
ALTON          CLOUDY    61  43  51 NW10      30.00F
BELLEVILLE     MOSUNNY   62  44  51 NW6       29.98F
CAHOKIA*       CLOUDY    63  42  46 NW9       30.00F
SPARTA*        CLOUDY    59  44  57 W3        30.01F
$$

ILZ064>066-069>071-074>076-080>082-084>086-088>090-092>094-032000-
SOUTH-CENTRAL ILLINOIS

CITY           SKY/WX    TMP DP  RH WIND       PRES   REMARKS
CARBONDALE     CLOUDY    62  43  49 N8        29.99F
CAIRO*         CLOUDY    61  46  59 N5        30.00F
EFFINGHAM*     CLOUDY    62  43  49 NW12      29.98F
MARION         CLOUDY    63  45  51 W9        30.00F
MT. VERNON     CLOUDY    61  43  51 N5        29.99F
CENTRALIA*     CLOUDY    61  45  55 NW7       29.98F
SALEM*         CLOUDY    62  42  46 NW5       29.98F
METROPOLIS*    CLOUDY    61  46  58 CALM      29.99F
$$

ILZ067-068-072-073-078-083-087-091-032000-
SOUTHEAST ILLINOIS

CITY           SKY/WX    TMP DP  RH WIND       PRES   REMARKS
LAWRENCEVILLE  CLOUDY    60  44  55 NW10      29.96F
FLORA*         CLOUDY    63  41  45 NW9       29.97F
FAIRFIELD*     CLOUDY    61  43  51 N8        29.96F
HARRISBURG*    CLOUDY    63  42  47 NW9       29.98F
ROBINSON*      CLOUDY    58  45  60 N8        29.96F
CARMI*         CLOUDY    62  46  55 NW12G17   29.97F
$$

ABBREVIATIONS USED IN REMARKS
   TC - TEMPERATURE IN CELSIUS
  WCI - WIND CHILL INDEX
   HX - HEAT INDEX
  VSB - VISIBILITY
$$





USA.gov is the U.S. government's official web portal to all federal, state and local government web resources and services.